User: anonymous   Login
Location: Unspecified
(0.0000°N, 0.0000°E)
Time: 06:47:02
(UTC+02:00)
Language:

ARIANE 5 R/B - Orbit

View from above orbital plane
View from above orbital plane
View from above satellite
View from above satellite

Ground track
Ground track

The orbit data is extracted from the following two-line orbital elements,

1 27510U 02040C   17207.63451921 -.00000030 +00000-0 +10784-2 0  9995
2 27510 004.8830 196.8674 7148807 002.1609 139.4543 02.27198886123785
Epoch (UTC): 26 July 2017 15:13:42
Eccentricity: 0.7148807
inclination: 4.8830°
perigee height: 590 km
apogee height: 35536 km
right ascension of ascending node: 196.8674°
argument of perigee: 2.1609°
revolutions per day: 2.27198886
mean anomaly at epoch: 139.4543°
orbit number at epoch: 12378

The dashed part of the orbit path shows where the satellite is in the earth's shadow,  

DLR